| time (UTC) | temp C | wind direction | speed KPH | gust KPH | rain 1hr cm | rain 24hr cm | rain mn cm | humidity % | barometer mb |
| 20260503053731 | 1 | 126 | 0.0 | 0.0 | 0.00 | 0.00 | 0.00 | 94 | 1018.4 |
| 20260503052232 | 2 | 121 | 0.0 | 0.0 | 0.00 | 0.00 | 0.00 | 94 | 1018.4 |
| 20260503050734 | 2 | 115 | 0.0 | 0.0 | 0.00 | 0.00 | 0.00 | 90 | 1018.4 |
| 20260503050730 | 2 | 129 | 0.0 | 0.0 | 0.00 | 0.00 | 0.00 | 92 | 1018.5 |
| 20260503043729 | 2 | 103 | 0.0 | 0.0 | 0.00 | 0.00 | 0.00 | 89 | 1018.3 |
| 20260503042226 | 3 | 99 | 0.0 | 0.0 | 0.00 | 0.00 | 0.00 | 88 | 1018.3 |
| 20260503040730 | 3 | 128 | 0.0 | 0.0 | 0.00 | 0.00 | 0.00 | 85 | 1018.4 |
| 20260503040726 | 3 | 120 | 0.0 | 0.0 | 0.00 | 0.00 | 0.00 | 87 | 1018.2 |
| 20260503033731 | 4 | 42 | 0.0 | 0.0 | 0.00 | 0.00 | 0.00 | 83 | 1018.2 |
| 20260503033726 | 4 | 56 | 0.0 | 0.0 | 0.00 | 0.00 | 0.00 | 83 | 1018.3 |
| 20260503030725 | 4 | 30 | 0.0 | 0.0 | 0.00 | 0.00 | 0.00 | 80 | 1018.3 |
| 20260503025229 | 5 | 73 | 0.0 | 0.0 | 0.00 | 0.00 | 0.00 | 77 | 1018.3 |
| 20260503025225 | 4 | 63 | 0.0 | 0.0 | 0.00 | 0.00 | 0.00 | 80 | 1018.3 |
| 20260503022224 | 6 | 66 | 0.0 | 0.0 | 0.00 | 0.00 | 0.00 | 73 | 1018.1 |
| 20260503020728 | 7 | 68 | 0.0 | 0.0 | 0.00 | 0.00 | 0.00 | 66 | 1017.9 |
| 20260503020723 | 7 | 82 | 0.0 | 0.0 | 0.00 | 0.00 | 0.00 | 69 | 1018.0 |
| 20260503013723 | 7 | 56 | 0.0 | 3.2 | 0.00 | 0.00 | 0.00 | 63 | 1017.8 |
| 20260503012220 | 7 | 45 | 0.0 | 12.9 | 0.00 | 0.00 | 0.00 | 60 | 1017.6 |
| 20260503010721 | 8 | 352 | 6.4 | 16.1 | 0.00 | 0.00 | 0.00 | 58 | 1017.5 |
| 20260503005220 | 8 | 341 | 3.2 | 16.1 | 0.00 | 0.00 | 0.00 | 56 | 1017.4 |
| 20260503003721 | 8 | 330 | 6.4 | 16.1 | 0.00 | 0.00 | 0.00 | 55 | 1017.3 |
| 20260503002219 | 8 | 38 | 0.0 | 16.1 | 0.00 | 0.00 | 0.00 | 54 | 1017.2 |
| 20260503000718 | 8 | 345 | 6.4 | 20.9 | 0.00 | 0.00 | 0.00 | 53 | 1017.1 |
| 20260502235217 | 9 | 117 | 1.6 | 12.9 | 0.00 | 0.00 | 0.00 | 53 | 1017.0 |
| 20260502233714 | 9 | 9 | 11.3 | 16.1 | 0.00 | 0.00 | 0.00 | 51 | 1016.9 |
| 20260502232211 | 9 | 329 | 14.5 | 20.9 | 0.00 | 0.00 | 0.00 | 52 | 1016.9 |
| 20260502230707 | 10 | 342 | 6.4 | 24.1 | 0.00 | 0.00 | 0.00 | 52 | 1016.8 |
| 20260502225310 | 10 | 339 | 3.2 | 27.4 | 0.00 | 0.00 | 0.00 | 49 | 1016.6 |
| 20260502223702 | 10 | 7 | 9.7 | 27.4 | 0.00 | 0.00 | 0.00 | 49 | 1016.7 |
| 20260502220658 | 10 | 350 | 11.3 | 27.4 | 0.00 | 0.00 | 0.00 | 48 | 1016.5 |
| 20260502215154 | 10 | 323 | 16.1 | 24.1 | 0.00 | 0.00 | 0.00 | 49 | 1016.5 |
| 20260502213651 | 11 | 358 | 6.4 | 12.9 | 0.00 | 0.00 | 0.00 | 49 | 1016.4 |
| 20260502212149 | 11 | 327 | 4.8 | 20.9 | 0.00 | 0.00 | 0.00 | 48 | 1016.3 |
| 20260502210647 | 11 | 39 | 4.8 | 27.4 | 0.00 | 0.00 | 0.00 | 49 | 1016.2 |
| 20260502205146 | 11 | 337 | 9.7 | 32.2 | 0.00 | 0.00 | 0.00 | 47 | 1016.2 |
| 20260502203643 | 12 | 308 | 14.5 | 20.9 | 0.00 | 0.00 | 0.00 | 48 | 1016.1 |
| 20260502203638 | 12 | 10 | 8.0 | 12.9 | 0.00 | 0.00 | 0.00 | 47 | 1016.3 |
| 20260502200634 | 12 | 322 | 14.5 | 24.1 | 0.00 | 0.00 | 0.00 | 46 | 1016.4 |
| 20260502200629 | 11 | 2 | 8.0 | 12.9 | 0.00 | 0.00 | 0.00 | 46 | 1016.5 |
| 20260502193624 | 11 | 40 | 3.2 | 12.9 | 0.00 | 0.00 | 0.00 | 47 | 1016.4 |
| 20260502192119 | -17 | 0.0 | 0.0 | 0.00 | 0.00 | 0.00 | 1016.7 | ||
| 20260502190613 | 11 | 359 | 17.7 | 37.0 | 0.00 | 0.00 | 0.00 | 46 | 1016.6 |
| 20260502185108 | 12 | 349 | 12.9 | 16.1 | 0.00 | 0.00 | 0.00 | 44 | 1016.7 |
| 20260502183603 | 12 | 7 | 14.5 | 24.1 | 0.00 | 0.00 | 0.00 | 46 | 1016.9 |
| 20260502182058 | 11 | 5 | 14.5 | 20.9 | 0.00 | 0.00 | 0.00 | 46 | 1016.9 |
| 20260502180552 | 11 | 343 | 9.7 | 20.9 | 0.00 | 0.00 | 0.00 | 44 | 1017.1 |
| 20260502163521 | 11 | 331 | 11.3 | 16.1 | 0.00 | 0.00 | 0.00 | 53 | 1017.3 |
| 20260502162018 | 11 | 315 | 8.0 | 12.9 | 0.00 | 0.00 | 0.00 | 52 | 1017.5 |
| 20260502160514 | 10 | 17 | 12.9 | 16.1 | 0.00 | 0.00 | 0.00 | 51 | 1017.6 |
| 20260502152004 | 10 | 282 | 11.3 | 20.9 | 0.00 | 0.00 | 0.00 | 53 | 1017.6 |
| 20260502150503 | 9 | 299 | 14.5 | 16.1 | 0.00 | 0.00 | 0.00 | 53 | 1017.6 |
| 20260502130449 | 3 | 348 | 3.2 | 8.0 | 0.00 | 0.00 | 0.00 | 76 | 1017.7 |
| 20260502130444 | 3 | 320 | 1.6 | 3.2 | 0.00 | 0.00 | 0.00 | 99 | 1017.5 |
| 20260502121934 | 2 | 2 | 0.0 | 8.0 | 0.00 | 0.00 | 0.00 | 99 | 1017.5 |
| 20260502120431 | 2 | 142 | 0.0 | 0.0 | 0.00 | 0.00 | 0.00 | 99 | 1017.4 |
| 20260502114929 | 2 | 275 | 0.0 | 0.0 | 0.00 | 0.00 | 0.00 | 99 | 1017.4 |
| 20260502113428 | 2 | 25 | 0.0 | 0.0 | 0.00 | 0.00 | 0.00 | 99 | 1017.3 |
| 20260502111923 | 1 | 345 | 0.0 | 0.0 | 0.00 | 0.00 | 0.00 | 99 | 1017.2 |
| 20260502110418 | 1 | 286 | 0.0 | 0.0 | 0.00 | 0.00 | 0.00 | 99 | 1017.1 |
| 20260502104914 | 1 | 83 | 0.0 | 0.0 | 0.00 | 0.00 | 0.00 | 99 | 1017.0 |
| 20260502103408 | 1 | 111 | 0.0 | 0.0 | 0.00 | 0.00 | 0.00 | 99 | 1017.1 |
| 20260502101903 | 1 | 147 | 0.0 | 0.0 | 0.00 | 0.00 | 0.00 | 99 | 1017.2 |
| 20260502100359 | 1 | 156 | 0.0 | 0.0 | 0.00 | 0.00 | 0.00 | 99 | 1017.2 |
| 20260502090334 | 2 | 175 | 0.0 | 0.0 | 0.00 | 0.00 | 0.00 | 99 | 1017.3 |
| 20260502070320 | 2 | 114 | 0.0 | 0.0 | 0.00 | 0.00 | 0.00 | 99 | 1016.8 |
| 20260502064819 | 2 | 124 | 0.0 | 0.0 | 0.00 | 0.00 | 0.00 | 99 | 1017.0 |
| 20260502063314 | 2 | 86 | 0.0 | 0.0 | 0.00 | 0.00 | 0.00 | 99 | 1017.1 |